| time (UTC) | temp F | wind direction | speed MPH | gust MPH | rain 1hr in | rain 24hr in | rain mn in | humidity % | barometer mb |
| 20260504190504 | 61 | 31 | 4.0 | 13.0 | 0.00 | 0.01 | 0.01 | 88 | 1013.0 |
| 20260504190003 | 61 | 33 | 3.0 | 13.0 | 0.00 | 0.01 | 0.01 | 87 | 1013.0 |
| 20260504185503 | 61 | 37 | 2.0 | 7.0 | 0.00 | 0.01 | 0.01 | 87 | 1013.0 |
| 20260504185005 | 61 | 36 | 2.0 | 8.0 | 0.00 | 0.01 | 0.01 | 87 | 1012.9 |
| 20260504184504 | 61 | 26 | 2.0 | 9.0 | 0.00 | 0.01 | 0.01 | 87 | 1012.7 |
| 20260504184014 | 62 | 19 | 2.0 | 9.0 | 0.00 | 0.01 | 0.01 | 87 | 1012.7 |
| 20260504183508 | 62 | 28 | 2.0 | 6.0 | 0.00 | 0.01 | 0.01 | 86 | 1012.7 |
| 20260504183216 | 62 | 39 | 2.0 | 7.0 | 0.00 | 0.01 | 0.01 | 86 | 1012.6 |
| 20260504182505 | 62 | 42 | 3.0 | 9.0 | 0.00 | 0.01 | 0.01 | 86 | 1012.7 |
| 20260504182005 | 62 | 47 | 3.0 | 9.0 | 0.00 | 0.01 | 0.01 | 86 | 1012.8 |
| 20260504181503 | 62 | 48 | 3.0 | 9.0 | 0.00 | 0.01 | 0.01 | 86 | 1012.7 |
| 20260504181005 | 63 | 40 | 3.0 | 9.0 | 0.00 | 0.01 | 0.01 | 85 | 1012.6 |
| 20260504180505 | 63 | 32 | 3.0 | 11.0 | 0.00 | 0.01 | 0.01 | 84 | 1012.6 |
| 20260504180003 | 63 | 38 | 2.0 | 11.0 | 0.00 | 0.01 | 0.01 | 84 | 1012.6 |
| 20260504175505 | 63 | 43 | 2.0 | 8.0 | 0.00 | 0.01 | 0.01 | 84 | 1012.6 |
| 20260504175003 | 63 | 38 | 3.0 | 8.0 | 0.00 | 0.01 | 0.01 | 83 | 1012.6 |
| 20260504174506 | 64 | 40 | 2.0 | 7.0 | 0.00 | 0.01 | 0.01 | 83 | 1012.6 |
| 20260504174004 | 64 | 42 | 2.0 | 7.0 | 0.00 | 0.01 | 0.01 | 83 | 1012.6 |
| 20260504173505 | 64 | 45 | 2.0 | 6.0 | 0.00 | 0.01 | 0.01 | 83 | 1012.6 |
| 20260504173220 | 64 | 45 | 2.0 | 6.0 | 0.00 | 0.01 | 0.01 | 82 | 1012.7 |
| 20260504172503 | 64 | 47 | 1.0 | 6.0 | 0.00 | 0.01 | 0.01 | 82 | 1012.6 |
| 20260504172006 | 65 | 48 | 1.0 | 5.0 | 0.00 | 0.01 | 0.01 | 82 | 1012.5 |
| 20260504171503 | 65 | 47 | 1.0 | 5.0 | 0.00 | 0.01 | 0.01 | 82 | 1012.5 |
| 20260504171008 | 65 | 51 | 1.0 | 3.0 | 0.00 | 0.01 | 0.01 | 81 | 1012.6 |
| 20260504170504 | 65 | 44 | 1.0 | 5.0 | 0.00 | 0.01 | 0.01 | 81 | 1012.6 |
| 20260504160219 | 65 | 360 | 2.0 | 8.0 | 0.00 | 0.01 | 0.01 | 81 | 1012.5 |
| 20260504151003 | 65 | 349 | 3.0 | 10.0 | 0.00 | 0.01 | 0.01 | 81 | 1012.6 |
| 20260504150505 | 65 | 358 | 3.0 | 9.0 | 0.00 | 0.01 | 0.01 | 80 | 1012.6 |
| 20260504141005 | 66 | 312 | 5.0 | 12.0 | 0.00 | 0.06 | 0.01 | 78 | 1013.0 |
| 20260504140503 | 66 | 299 | 7.0 | 14.0 | 0.00 | 0.06 | 0.01 | 77 | 1012.9 |
| 20260504130508 | 68 | 171 | 2.0 | 6.0 | 0.00 | 0.06 | 0.01 | 72 | 1013.0 |
| 20260504130218 | 68 | 157 | 2.0 | 4.0 | 0.00 | 0.07 | 0.01 | 72 | 1013.1 |
| 20260504110505 | 67 | 168 | 2.0 | 7.0 | 0.00 | 0.20 | 0.01 | 78 | 1013.6 |
| 20260504100504 | 65 | 176 | 2.0 | 6.0 | 0.00 | 0.20 | 0.01 | 80 | 1013.7 |
| 20260504081505 | 60 | 140 | 2.0 | 5.0 | 0.00 | 0.20 | 0.01 | 93 | 1013.4 |
| 20260504081005 | 60 | 138 | 2.0 | 5.0 | 0.00 | 0.20 | 0.01 | 93 | 1013.5 |
| 20260504080503 | 60 | 142 | 2.0 | 6.0 | 0.00 | 0.20 | 0.01 | 94 | 1013.4 |
| 20260504050503 | 55 | 140 | 0.0 | 3.0 | 0.00 | 0.20 | 0.01 | 98 | 1012.5 |
| 20260504050219 | 55 | 140 | 0.0 | 2.0 | 0.00 | 0.20 | 0.01 | 98 | 1012.4 |
| 20260504045508 | 55 | 140 | 0.0 | 2.0 | 0.00 | 0.20 | 0.01 | 98 | 1012.5 |
| 20260504045003 | 55 | 140 | 0.0 | 2.0 | 0.00 | 0.20 | 0.01 | 98 | 1012.5 |
| 20260504044504 | 55 | 140 | 1.0 | 3.0 | 0.00 | 0.20 | 0.01 | 98 | 1012.4 |
| 20260504044219 | 55 | 140 | 1.0 | 3.0 | 0.00 | 0.20 | 0.01 | 98 | 1012.4 |
| 20260504043505 | 55 | 141 | 1.0 | 3.0 | 0.00 | 0.20 | 0.01 | 98 | 1012.4 |
| 20260504043217 | 55 | 142 | 1.0 | 3.0 | 0.00 | 0.20 | 0.01 | 98 | 1012.4 |
| 20260504042511 | 55 | 155 | 1.0 | 4.0 | 0.00 | 0.20 | 0.01 | 98 | 1012.5 |
| 20260504042003 | 55 | 168 | 1.0 | 4.0 | 0.00 | 0.20 | 0.01 | 98 | 1012.4 |
| 20260504041505 | 55 | 177 | 1.0 | 3.0 | 0.00 | 0.20 | 0.01 | 97 | 1012.5 |
| 20260504041006 | 54 | 0 | 0.0 | 0.0 | 0.00 | 0.20 | 0.01 | 97 | 1012.4 |
| 20260504040718 | 54 | 0 | 0.0 | 0.0 | 0.00 | 0.20 | 0.01 | 97 | 1012.4 |
| 20260504040005 | 54 | 0 | 0.0 | 0.0 | 0.00 | 0.20 | 0.01 | 97 | 1012.4 |
| 20260504035506 | 54 | 0 | 0.0 | 0.0 | 0.00 | 0.20 | 0.01 | 97 | 1012.4 |
| 20260504035219 | 54 | 149 | 0.0 | 3.0 | 0.00 | 0.20 | 0.01 | 98 | 1012.4 |
| 20260504034503 | 54 | 155 | 1.0 | 4.0 | 0.00 | 0.20 | 0.01 | 98 | 1012.5 |
| 20260504034217 | 54 | 157 | 1.0 | 4.0 | 0.00 | 0.20 | 0.01 | 97 | 1012.4 |
| 20260504033503 | 54 | 157 | 2.0 | 5.0 | 0.00 | 0.20 | 0.01 | 97 | 1012.5 |
| 20260504033006 | 54 | 159 | 2.0 | 5.0 | 0.00 | 0.20 | 0.01 | 97 | 1012.5 |
| 20260504032505 | 53 | 166 | 1.0 | 5.0 | 0.00 | 0.20 | 0.01 | 97 | 1012.4 |
| 20260504032004 | 53 | 165 | 0.0 | 4.0 | 0.00 | 0.20 | 0.01 | 97 | 1012.4 |
| 20260504031720 | 53 | 165 | 1.0 | 4.0 | 0.00 | 0.20 | 0.01 | 97 | 1012.4 |
| 20260504031003 | 53 | 165 | 1.0 | 4.0 | 0.00 | 0.20 | 0.01 | 97 | 1012.4 |
| 20260504030507 | 53 | 165 | 0.0 | 4.0 | 0.00 | 0.20 | 0.01 | 97 | 1012.4 |
| 20260504030004 | 53 | 0 | 0.0 | 0.0 | 0.00 | 0.20 | 0.01 | 97 | 1012.5 |
| 20260504025503 | 53 | 0 | 0.0 | 0.0 | 0.00 | 0.20 | 0.01 | 97 | 1012.5 |
| 20260504025003 | 53 | 0 | 0.0 | 0.0 | 0.00 | 0.20 | 0.01 | 96 | 1012.4 |
| 20260504024503 | 53 | 0 | 0.0 | 0.0 | 0.00 | 0.20 | 0.01 | 96 | 1012.2 |
| 20260504024004 | 53 | 0 | 0.0 | 0.0 | 0.00 | 0.20 | 0.01 | 97 | 1012.2 |
| 20260504023504 | 53 | 0 | 0.0 | 0.0 | 0.00 | 0.20 | 0.01 | 96 | 1012.1 |
| 20260504023004 | 53 | 0 | 0.0 | 0.0 | 0.00 | 0.20 | 0.01 | 96 | 1012.0 |
| 20260504022503 | 54 | 0 | 0.0 | 0.0 | 0.00 | 0.20 | 0.01 | 96 | 1012.1 |
| 20260504022003 | 54 | 0 | 0.0 | 0.0 | 0.00 | 0.20 | 0.01 | 97 | 1012.1 |
| 20260504021503 | 54 | 0 | 0.0 | 0.0 | 0.00 | 0.20 | 0.01 | 97 | 1012.1 |
| 20260504021218 | 54 | 0 | 0.0 | 0.0 | 0.00 | 0.20 | 0.01 | 97 | 1012.0 |
| 20260504020719 | 54 | 0 | 0.0 | 0.0 | 0.00 | 0.20 | 0.01 | 97 | 1012.0 |
| 20260504020003 | 54 | 0 | 0.0 | 0.0 | 0.00 | 0.20 | 0.01 | 96 | 1012.0 |
| 20260504015505 | 54 | 0 | 0.0 | 0.0 | 0.00 | 0.23 | 0.01 | 96 | 1012.0 |
| 20260504015004 | 54 | 0 | 0.0 | 0.0 | 0.00 | 0.24 | 0.01 | 96 | 1012.0 |
| 20260504014506 | 55 | 0 | 0.0 | 0.0 | 0.00 | 0.24 | 0.01 | 96 | 1011.9 |
| 20260504014222 | 55 | 0 | 0.0 | 0.0 | 0.00 | 0.24 | 0.01 | 96 | 1012.0 |
| 20260504013504 | 55 | 0 | 0.0 | 0.0 | 0.00 | 0.26 | 0.01 | 96 | 1011.9 |
| 20260504013218 | 55 | 0 | 0.0 | 0.0 | 0.00 | 0.26 | 0.01 | 97 | 1011.9 |
| 20260504012515 | 55 | 0 | 0.0 | 0.0 | 0.00 | 0.26 | 0.01 | 96 | 1011.9 |
| 20260504012007 | 55 | 0 | 0.0 | 0.0 | 0.00 | 0.26 | 0.01 | 96 | 1011.9 |
| 20260504011719 | 56 | 0 | 0.0 | 0.0 | 0.00 | 0.26 | 0.01 | 96 | 1011.9 |
| 20260504011005 | 56 | 0 | 0.0 | 0.0 | 0.00 | 0.26 | 0.01 | 97 | 1012.0 |
| 20260504010503 | 56 | 0 | 0.0 | 0.0 | 0.00 | 0.26 | 0.01 | 97 | 1011.8 |
| 20260504010218 | 56 | 0 | 0.0 | 0.0 | 0.00 | 0.26 | 0.01 | 97 | 1011.8 |
| 20260504005505 | 56 | 234 | 0.0 | 2.0 | 0.00 | 0.26 | 0.01 | 97 | 1011.8 |
| 20260504005003 | 56 | 234 | 0.0 | 2.0 | 0.00 | 0.26 | 0.01 | 97 | 1011.8 |
| 20260504004506 | 56 | 234 | 0.0 | 2.0 | 0.00 | 0.26 | 0.01 | 97 | 1012.0 |
| 20260504004003 | 56 | 234 | 0.0 | 2.0 | 0.00 | 0.26 | 0.01 | 97 | 1012.0 |
| 20260504003505 | 56 | 0 | 0.0 | 0.0 | 0.00 | 0.26 | 0.01 | 96 | 1011.9 |
| 20260504003003 | 56 | 0 | 0.0 | 0.0 | 0.00 | 0.26 | 0.01 | 96 | 1011.9 |
| 20260504002505 | 56 | 0 | 0.0 | 0.0 | 0.01 | 0.26 | 0.01 | 96 | 1012.0 |
| 20260504002003 | 56 | 0 | 0.0 | 0.0 | 0.01 | 0.26 | 0.01 | 96 | 1012.0 |
| 20260504001716 | 56 | 0 | 0.0 | 0.0 | 0.01 | 0.26 | 0.01 | 96 | 1012.0 |
| 20260504001004 | 56 | 0 | 0.0 | 0.0 | 0.01 | 0.26 | 0.01 | 96 | 1011.9 |
| 20260504000505 | 56 | 0 | 0.0 | 0.0 | 0.01 | 0.26 | 0.01 | 96 | 1011.9 |
| 20260504000219 | 56 | 0 | 0.0 | 0.0 | 0.01 | 0.26 | 0.01 | 96 | 1012.0 |
| 20260503235503 | 57 | 0 | 0.0 | 0.0 | 0.01 | 0.26 | 0.01 | 96 | 1011.9 |
| 20260503235217 | 57 | 0 | 0.0 | 0.0 | 0.01 | 0.26 | 0.01 | 96 | 1012.0 |
| 20260503234503 | 57 | 0 | 0.0 | 0.0 | 0.01 | 0.26 | 0.01 | 96 | 1012.0 |
| 20260503234006 | 57 | 0 | 0.0 | 0.0 | 0.01 | 0.26 | 0.01 | 96 | 1011.9 |
| 20260503233504 | 57 | 0 | 0.0 | 0.0 | 0.01 | 0.26 | 0.01 | 96 | 1011.9 |
| 20260503233003 | 57 | 0 | 0.0 | 0.0 | 0.01 | 0.26 | 0.01 | 96 | 1011.9 |
| 20260503232503 | 57 | 0 | 0.0 | 0.0 | 0.00 | 0.25 | 0.00 | 96 | 1011.9 |
| 20260503232219 | 57 | 0 | 0.0 | 0.0 | 0.00 | 0.25 | 0.00 | 96 | 1011.9 |
| 20260503231505 | 57 | 0 | 0.0 | 0.0 | 0.00 | 0.26 | 0.00 | 96 | 1012.0 |
| 20260503231005 | 57 | 0 | 0.0 | 0.0 | 0.00 | 0.26 | 0.00 | 96 | 1012.0 |
| 20260503230506 | 57 | 0 | 0.0 | 0.0 | 0.00 | 0.26 | 0.00 | 96 | 1011.9 |
| 20260503230008 | 57 | 0 | 0.0 | 0.0 | 0.00 | 0.27 | 0.00 | 96 | 1012.0 |
| 20260503225722 | 57 | 0 | 0.0 | 0.0 | 0.00 | 0.27 | 0.00 | 96 | 1011.9 |
| 20260503225005 | 57 | 0 | 0.0 | 0.0 | 0.00 | 0.27 | 0.00 | 96 | 1011.8 |
| 20260503224506 | 57 | 0 | 0.0 | 0.0 | 0.00 | 0.27 | 0.00 | 96 | 1011.8 |
| 20260503224008 | 57 | 0 | 0.0 | 0.0 | 0.00 | 0.27 | 0.00 | 96 | 1011.7 |
| 20260503223718 | 57 | 0 | 0.0 | 0.0 | 0.00 | 0.27 | 0.00 | 95 | 1011.7 |
| 20260503223003 | 57 | 0 | 0.0 | 0.0 | 0.00 | 0.27 | 0.00 | 95 | 1011.7 |
| 20260503222505 | 57 | 0 | 0.0 | 0.0 | 0.00 | 0.27 | 0.00 | 95 | 1011.8 |
| 20260503222006 | 57 | 0 | 0.0 | 0.0 | 0.00 | 0.27 | 0.00 | 95 | 1011.7 |
| 20260503221718 | 57 | 0 | 0.0 | 0.0 | 0.00 | 0.27 | 0.00 | 95 | 1011.7 |
| 20260503221003 | 58 | 0 | 0.0 | 0.0 | 0.00 | 0.27 | 0.00 | 95 | 1011.7 |
| 20260503220503 | 58 | 0 | 0.0 | 0.0 | 0.00 | 0.27 | 0.00 | 95 | 1011.7 |
| 20260503220005 | 58 | 0 | 0.0 | 0.0 | 0.00 | 0.27 | 0.00 | 95 | 1011.5 |
| 20260503215504 | 58 | 0 | 0.0 | 0.0 | 0.00 | 0.27 | 0.27 | 95 | 1011.5 |
| 20260503215003 | 58 | 0 | 0.0 | 0.0 | 0.00 | 0.27 | 0.27 | 95 | 1011.5 |
| 20260503214503 | 58 | 0 | 0.0 | 0.0 | 0.00 | 0.27 | 0.27 | 95 | 1011.5 |
| 20260503214003 | 58 | 0 | 0.0 | 0.0 | 0.00 | 0.27 | 0.27 | 95 | 1011.6 |
| 20260503213504 | 58 | 0 | 0.0 | 0.0 | 0.00 | 0.27 | 0.27 | 95 | 1011.6 |
| 20260503213003 | 58 | 0 | 0.0 | 0.0 | 0.00 | 0.27 | 0.27 | 95 | 1011.6 |
| 20260503212719 | 58 | 0 | 0.0 | 0.0 | 0.00 | 0.27 | 0.27 | 95 | 1011.7 |
| 20260503212003 | 58 | 0 | 0.0 | 0.0 | 0.00 | 0.27 | 0.27 | 95 | 1011.6 |
| 20260503211505 | 58 | 0 | 0.0 | 0.0 | 0.00 | 0.27 | 0.27 | 95 | 1011.6 |
| 20260503211003 | 58 | 0 | 0.0 | 0.0 | 0.00 | 0.27 | 0.27 | 95 | 1011.6 |
| 20260503210505 | 58 | 0 | 0.0 | 0.0 | 0.00 | 0.27 | 0.27 | 95 | 1011.6 |
| 20260503210008 | 59 | 0 | 0.0 | 0.0 | 0.00 | 0.27 | 0.27 | 95 | 1011.4 |
| 20260503205511 | 59 | 0 | 0.0 | 0.0 | 0.00 | 0.27 | 0.27 | 95 | 1011.5 |
| 20260503205007 | 59 | 0 | 0.0 | 0.0 | 0.00 | 0.27 | 0.27 | 95 | 1011.6 |
| 20260503204717 | 59 | 0 | 0.0 | 0.0 | 0.00 | 0.27 | 0.27 | 95 | 1011.6 |
| 20260503204004 | 59 | 0 | 0.0 | 0.0 | 0.00 | 0.27 | 0.27 | 95 | 1011.5 |
| 20260503203503 | 59 | 0 | 0.0 | 0.0 | 0.00 | 0.27 | 0.27 | 95 | 1011.5 |
| 20260503203006 | 59 | 0 | 0.0 | 0.0 | 0.00 | 0.27 | 0.27 | 95 | 1011.5 |
| 20260503202503 | 59 | 0 | 0.0 | 0.0 | 0.00 | 0.27 | 0.27 | 95 | 1011.5 |
| 20260503202003 | 59 | 0 | 0.0 | 0.0 | 0.00 | 0.27 | 0.27 | 95 | 1011.5 |
| 20260503201503 | 59 | 0 | 0.0 | 0.0 | 0.00 | 0.27 | 0.27 | 94 | 1011.6 |
| 20260503201005 | 59 | 0 | 0.0 | 0.0 | 0.00 | 0.27 | 0.27 | 94 | 1011.6 |
| 20260503200505 | 59 | 155 | 0.0 | 5.0 | 0.00 | 0.27 | 0.27 | 94 | 1011.6 |
| 20260503200003 | 59 | 163 | 1.0 | 5.0 | 0.00 | 0.27 | 0.27 | 94 | 1011.6 |
| 20260503195503 | 59 | 168 | 2.0 | 5.0 | 0.00 | 0.27 | 0.27 | 94 | 1011.7 |
| 20260503195006 | 59 | 164 | 2.0 | 5.0 | 0.00 | 0.27 | 0.27 | 94 | 1011.6 |
| 20260503194505 | 59 | 152 | 1.0 | 4.0 | 0.00 | 0.27 | 0.27 | 94 | 1011.6 |
| 20260503194008 | 59 | 150 | 2.0 | 5.0 | 0.00 | 0.27 | 0.27 | 94 | 1011.5 |
| 20260503193505 | 59 | 154 | 2.0 | 6.0 | 0.00 | 0.27 | 0.27 | 94 | 1011.5 |
| 20260503193005 | 59 | 156 | 3.0 | 9.0 | 0.00 | 0.27 | 0.27 | 94 | 1011.4 |
| 20260503192503 | 59 | 154 | 3.0 | 9.0 | 0.00 | 0.27 | 0.27 | 94 | 1011.4 |
| 20260503192004 | 59 | 153 | 3.0 | 8.0 | 0.00 | 0.27 | 0.27 | 94 | 1011.4 |
| 20260503191717 | 59 | 157 | 3.0 | 8.0 | 0.00 | 0.27 | 0.27 | 94 | 1011.4 |
| 20260503191218 | 59 | 155 | 3.0 | 8.0 | 0.00 | 0.27 | 0.27 | 94 | 1011.3 |